CW8504 Weather Reports


time (UTC)temp
F
wind
direction
speed
knots
gust
knots
rain 1hr
in
rain 24hr
in
rain mn
in
humidity
%
barometer
mb
20260906000904 82 225 6.1 14.8 0.00 0.00 0.00 1 1017.7
20260906000404 82 225 4.3 8.7 0.00 0.00 0.00 1 1017.7
20260905235404 83 231 1.7 8.7 0.00 0.00 0.00 1 1017.6
20260905234904 83 219 1.7 2.6 0.00 0.00 0.00 1 1017.7
20260905234404 83 213 0.9 5.2 0.00 0.00 0.00 1 1017.8
20260905233904 83 136 1.7 7.8 0.00 0.00 0.00 1 1017.7
20260905233403 83 147 1.7 7.0 0.00 0.00 0.00 1 1017.7
20260905232904 83 227 1.7 6.1 0.00 0.00 0.00 1 1017.7
20260905232404 83 229 4.3 10.4 0.00 0.00 0.00 1 1017.7
20260905231904 83 223 4.3 5.2 0.00 0.00 0.00 1 1017.7
20260905231404 83 223 2.6 7.8 0.00 0.00 0.00 1 1017.6
20260905230404 83 233 3.5 11.3 0.00 0.00 0.00 1 1017.6
20260905225904 83 230 6.1 13.0 0.00 0.00 0.00 1 1017.6
20260905224904 83 255 2.6 13.0 0.00 0.00 0.00 2 1017.6
20260905223904 83 233 7.0 17.4 0.00 0.00 0.00 1 1017.8
20260905222404 83 215 3.5 17.4 0.00 0.00 0.00 3 1017.7
20260905221904 83 207 4.3 10.4 0.00 0.00 0.00 3 1017.8
20260905221404 82 224 4.3 10.4 0.00 0.00 0.00 3 1017.7
20260905220904 82 223 5.2 17.4 0.00 0.00 0.00 2 1017.9
20260905220404 82 220 5.2 17.4 0.00 0.00 0.00 3 1017.9
20260905215904 82 237 7.8 13.9 0.00 0.00 0.00 3 1017.9
20260905215404 82 259 0.9 13.0 0.00 0.00 0.00 3 1017.9
20260905214904 82 219 4.3 12.2 0.00 0.00 0.00 4 1017.8
20260905214404 82 220 2.6 7.8 0.00 0.00 0.00 4 1017.9
20260905213904 82 225 3.5 10.4 0.00 0.00 0.00 4 1017.9
20260905213404 81 230 8.7 11.3 0.00 0.00 0.00 4 1017.9
20260905212904 81 243 3.5 12.2 0.00 0.00 0.00 5 1017.9
20260905212404 81 232 2.6 8.7 0.00 0.00 0.00 4 1018.0
20260905210904 81 217 6.1 10.4 0.00 0.00 0.00 5 1018.1
20260905210404 81 217 6.1 13.0 0.00 0.00 0.00 5 1018.2
20260905205904 81 230 3.5 13.9 0.00 0.00 0.00 7 1018.2
20260905205404 81 211 5.2 13.0 0.00 0.00 0.00 6 1018.2
20260905204904 81 236 4.3 13.0 0.00 0.00 0.00 6 1018.3
20260905204404 81 208 5.2 10.4 0.00 0.00 0.00 5 1018.4
20260905203904 81 222 5.2 14.8 0.00 0.00 0.00 5 1018.3
20260905203404 81 236 5.2 10.4 0.00 0.00 0.00 5 1018.3
20260905202904 81 231 5.2 11.3 0.00 0.00 0.00 7 1018.3
20260905202405 81 228 6.1 17.4 0.00 0.00 0.00 6 1018.4
20260905201904 81 221 2.6 10.4 0.00 0.00 0.00 6 1018.3
20260905201404 81 229 8.7 17.4 0.00 0.00 0.00 7 1018.4
20260905195904 80 221 5.2 12.2 0.00 0.00 0.00 7 1018.6
20260905195404 80 230 8.7 17.4 0.00 0.00 0.00 7 1018.6
20260905194904 80 231 8.7 15.6 0.00 0.00 0.00 6 1018.6
20260905193904 80 220 7.0 13.0 0.00 0.00 0.00 7 1018.5
20260905193404 80 225 4.3 10.4 0.00 0.00 0.00 6 1018.5
20260905192904 80 237 1.7 12.2 0.00 0.00 0.00 7 1018.7
20260905192404 80 219 2.6 8.7 0.00 0.00 0.00 8 1018.7
20260905191904 80 233 7.0 11.3 0.00 0.00 0.00 8 1018.9
20260905191404 80 230 5.2 14.8 0.00 0.00 0.00 8 1018.9
20260905190404 79 218 5.2 10.4 0.00 0.00 0.00 9 1018.9
20260905185904 79 245 4.3 11.3 0.00 0.00 0.00 8 1019.0
20260905185404 79 223 2.6 13.0 0.00 0.00 0.00 9 1019.0
20260905184904 78 235 10.4 20.9 0.00 0.00 0.00 8 1019.1
20260905184404 78 224 7.0 13.0 0.00 0.00 0.00 8 1019.1
20260905183404 78 237 7.0 14.8 0.00 0.00 0.00 9 1019.2
20260905182904 78 219 6.1 13.0 0.00 0.00 0.00 10 1019.3
20260905181904 78 212 7.8 15.6 0.00 0.00 0.00 10 1019.3
20260905181404 78 229 2.6 7.8 0.00 0.00 0.00 11 1019.3
20260905180904 78 240 0.0 12.2 0.00 0.00 0.00 12 1019.3
20260905180404 78 226 1.7 7.8 0.00 0.00 0.00 13 1019.4
20260905175903 77 232 4.3 10.4 0.00 0.00 0.00 13 1019.4
20260905175404 77 237 1.7 7.8 0.00 0.00 0.00 15 1019.5
20260905174404 76 231 1.7 7.0 0.00 0.00 0.00 14 1019.5
20260905173904 76 213 2.6 10.4 0.00 0.00 0.00 15 1019.5
20260905173404 76 227 2.6 10.4 0.00 0.00 0.00 15 1019.5
20260905172904 75 234 3.5 8.7 0.00 0.00 0.00 15 1019.6
20260905172404 75 233 2.6 7.8 0.00 0.00 0.00 17 1019.6
20260905171904 74 247 0.9 2.6 0.00 0.00 0.00 18 1019.6
20260905171404 74 337 0.0 0.0 0.00 0.00 0.00 23 1019.6
20260905170904 73 337 0.0 0.0 0.00 0.00 0.00 23 1019.7
20260905165906 71 0 0.0 0.0 0.00 0.00 0.00 28 1019.9
20260905165404 70 0 0.0 0.0 0.00 0.00 0.00 29 1019.9
20260905164904 69 0 0.0 0.0 0.00 0.00 0.00 32 1019.9
20260905164404 68 0 0.0 0.0 0.00 0.00 0.00 31 1019.9
20260905162904 65 0 0.0 0.0 0.00 0.00 0.00 34 1020.0
20260905162404 64 0 0.0 0.0 0.00 0.00 0.00 35 1020.0
20260905161904 64 0 0.0 0.0 0.00 0.00 0.00 36 1020.0
20260905160904 62 0 0.0 0.0 0.00 0.00 0.00 40 1020.0
20260905160404 61 0 0.0 0.0 0.00 0.00 0.00 42 1020.1
20260905155904 60 0 0.0 0.0 0.00 0.00 0.00 43 1020.1
20260905155404 59 0 0.0 0.0 0.00 0.00 0.00 46 1020.1
20260905154904 58 0 0.0 0.0 0.00 0.00 0.00 46 1020.1
20260905154404 57 0 0.0 0.0 0.00 0.00 0.00 47 1020.2
20260905153904 56 0 0.0 0.0 0.00 0.00 0.00 50 1020.2
20260905153405 56 0 0.0 0.0 0.00 0.00 0.00 52 1020.2
20260905152904 54 0 0.0 0.0 0.00 0.00 0.00 55 1020.3
20260905152404 53 0 0.0 0.0 0.00 0.00 0.00 57 1020.3
20260905151904 52 0 0.0 0.0 0.00 0.00 0.00 58 1020.3
20260905145404 47 0 0.0 0.0 0.00 0.00 0.00 67 1020.5
20260905144904 46 0 0.0 0.0 0.00 0.00 0.00 68 1020.6
20260905144404 46 0 0.0 0.0 0.00 0.00 0.00 68 1020.6
20260905143903 45 0 0.0 0.0 0.00 0.00 0.00 69 1020.7
20260905142904 45 0 0.0 0.0 0.00 0.00 0.00 70 1020.6
20260905142404 44 0 0.0 0.0 0.00 0.00 0.00 71 1020.6
20260905135904 43 0 0.0 0.0 0.00 0.00 0.00 71 1020.6
20260905135404 43 0 0.0 0.0 0.00 0.00 0.00 71 1020.5
20260905134904 43 0 0.0 0.0 0.00 0.00 0.00 71 1020.5
20260905134404 43 0 0.0 0.0 0.00 0.00 0.00 71 1020.5
20260905133904 43 0 0.0 0.0 0.00 0.00 0.00 71 1020.5
20260905133404 43 0 0.0 0.0 0.00 0.00 0.00 69 1020.4
20260905132904 43 0 0.0 0.0 0.00 0.00 0.00 69 1020.3
20260905131904 43 0 0.0 0.0 0.00 0.00 0.00 70 1020.2
20260905131404 43 0 0.0 0.0 0.00 0.00 0.00 70 1020.1
20260905130404 43 0 0.0 0.0 0.00 0.00 0.00 69 1020.1
20260905125904 44 0 0.0 0.0 0.00 0.00 0.00 68 1020.0
20260905125404 44 0 0.0 0.0 0.00 0.00 0.00 67 1020.0
20260905124404 44 0 0.0 0.0 0.00 0.00 0.00 68 1019.9
20260905123404 45 0 0.0 0.0 0.00 0.00 0.00 67 1019.7
20260905122904 45 0 0.0 0.0 0.00 0.00 0.00 67 1019.7
20260905122404 45 0 0.0 0.0 0.00 0.00 0.00 67 1019.6
20260905121904 45 0 0.0 0.0 0.00 0.00 0.00 67 1019.5
20260905121404 45 0 0.0 0.0 0.00 0.00 0.00 67 1019.5
20260905120904 45 0 0.0 0.0 0.00 0.00 0.00 67 1019.5
20260905120404 45 0 0.0 0.0 0.00 0.00 0.00 67 1019.5
20260905115904 45 0 0.0 0.0 0.00 0.00 0.00 67 1019.4
20260905115404 45 0 0.0 0.0 0.00 0.00 0.00 67 1019.5
20260905114904 46 0 0.0 0.0 0.00 0.00 0.00 66 1019.4
20260905114404 46 0 0.0 0.0 0.00 0.00 0.00 66 1019.4
20260905113904 46 0 0.0 0.0 0.00 0.00 0.00 66 1019.5
20260905112904 46 0 0.0 0.0 0.00 0.00 0.00 64 1019.5
20260905112404 46 0 0.0 0.0 0.00 0.00 0.00 64 1019.5
20260905111904 46 0 0.0 0.0 0.00 0.00 0.00 64 1019.3
20260905111404 46 0 0.0 0.0 0.00 0.00 0.00 64 1019.4
20260905110904 46 0 0.0 0.0 0.00 0.00 0.00 63 1019.3
20260905110404 46 0 0.0 0.0 0.00 0.00 0.00 62 1019.3
20260905105904 47 0 0.0 0.0 0.00 0.00 0.00 62 1019.2
20260905105404 47 0 0.0 0.0 0.00 0.00 0.00 62 1019.2
20260905104904 47 0 0.0 0.0 0.00 0.00 0.00 62 1019.2
20260905104404 47 0 0.0 0.0 0.00 0.00 0.00 61 1019.2
20260905102904 47 0 0.0 0.0 0.00 0.00 0.00 61 1019.1
20260905101404 48 0 0.0 0.0 0.00 0.00 0.00 60 1018.9
20260905100904 48 0 0.0 0.0 0.00 0.00 0.00 61 1018.9
20260905095904 48 0 0.0 0.0 0.00 0.00 0.00 61 1018.7
20260905094904 48 0 0.0 0.0 0.00 0.00 0.00 61 1018.7
20260905094404 48 0 0.0 0.0 0.00 0.00 0.00 61 1018.7
20260905093904 48 0 0.0 0.0 0.00 0.00 0.00 60 1018.7
20260905093404 48 0 0.0 0.0 0.00 0.00 0.00 59 1018.6
20260905092904 48 0 0.0 0.0 0.00 0.00 0.00 58 1018.6
20260905092404 49 0 0.0 0.0 0.00 0.00 0.00 58 1018.7
20260905091904 49 0 0.0 0.0 0.00 0.00 0.00 57 1018.8
20260905091404 49 0 0.0 0.0 0.00 0.00 0.00 56 1018.8
20260905090904 49 0 0.0 0.0 0.00 0.00 0.00 55 1018.7
20260905090404 49 0 0.0 0.0 0.00 0.00 0.00 56 1018.6
20260905085904 50 0 0.0 0.0 0.00 0.00 0.00 56 1018.7
20260905085404 50 0 0.0 0.0 0.00 0.00 0.00 55 1018.7
20260905084904 50 0 0.0 0.0 0.00 0.00 0.00 55 1018.5
20260905084404 50 0 0.0 0.0 0.00 0.00 0.00 52 1018.5
20260905083904 50 0 0.0 0.0 0.00 0.00 0.00 52 1018.5
20260905083404 51 0 0.0 0.0 0.00 0.00 0.00 52 1018.6
20260905082904 51 0 0.0 0.0 0.00 0.00 0.00 52 1018.6
20260905082404 51 0 0.0 0.0 0.00 0.00 0.00 52 1018.6
20260905081904 51 0 0.0 0.0 0.00 0.00 0.00 52 1018.6
20260905081404 51 0 0.0 0.0 0.00 0.00 0.00 52 1018.4
20260905080904 51 0 0.0 0.0 0.00 0.00 0.00 52 1018.4
20260905080404 51 0 0.0 0.0 0.00 0.00 0.00 52 1018.2
20260905075904 51 0 0.0 0.0 0.00 0.00 0.00 52 1018.5
20260905075404 51 0 0.0 0.0 0.00 0.00 0.00 52 1018.3
20260905074404 51 0 0.0 0.0 0.00 0.00 0.00 52 1018.2
20260905073904 51 5 0.0 0.0 0.00 0.00 0.00 51 1018.2
20260905073404 51 5 0.0 0.0 0.00 0.00 0.00 52 1018.0
20260905072404 50 11 0.0 2.6 0.00 0.00 0.00 54 1018.3
20260905071904 49 346 0.0 2.6 0.00 0.00 0.00 57 1018.1
20260905071404 49 310 0.0 0.0 0.00 0.00 0.00 58 1017.9
20260905070904 49 225 0.0 0.0 0.00 0.00 0.00 59 1017.9
20260905070404 49 225 0.0 0.0 0.00 0.00 0.00 59 1018.4
20260905065904 48 225 0.0 0.0 0.00 0.00 0.00 59 1018.7
20260905064904 48 225 0.0 0.0 0.00 0.00 0.00 59 1018.0
20260905064404 48 225 0.0 0.0 0.00 0.00 0.00 58 1017.9
20260905063904 48 225 0.0 0.0 0.00 0.00 0.00 58 1017.7
20260905063404 48 225 0.0 0.0 0.00 0.00 0.00 57 1017.8
20260905062904 48 225 0.0 0.0 0.00 0.00 0.00 57 1017.8
20260905062405 48 225 0.0 0.0 0.00 0.00 0.00 56 1017.8
20260905061904 48 225 0.0 0.0 0.00 0.00 0.00 56 1017.8
20260905061404 48 225 0.0 0.0 0.00 0.00 0.00 56 1017.8
20260905060404 49 225 0.0 0.0 0.00 0.00 0.00 57 1017.8
20260905055904 49 225 0.0 0.0 0.00 0.00 0.00 57 1017.7
20260905055404 49 225 0.0 0.0 0.00 0.00 0.00 57 1017.6
20260905054904 49 225 0.0 0.0 0.00 0.00 0.00 58 1017.7
20260905054404 49 225 0.0 0.0 0.00 0.00 0.00 57 1017.5
20260905053404 50 225 0.0 0.0 0.00 0.00 0.00 56 1017.5
20260905052904 50 225 0.0 0.0 0.00 0.00 0.00 56 1017.4
20260905051904 50 225 0.0 0.0 0.00 0.00 0.00 56 1017.5
20260905050904 50 225 0.0 0.0 0.00 0.00 0.00 55 1017.3
20260905050404 50 225 0.0 0.0 0.00 0.00 0.00 56 1017.5
20260905045904 50 225 0.0 0.0 0.00 0.00 0.00 54 1017.5
20260905045404 51 225 0.0 0.0 0.00 0.00 0.00 55 1017.5
20260905044905 51 225 0.0 0.0 0.00 0.00 0.00 54 1017.5
20260905043904 51 225 0.0 0.0 0.00 0.00 0.00 53 1017.5
20260905043404 51 225 0.0 0.0 0.00 0.00 0.00 51 1017.6
20260905042904 52 225 0.0 0.0 0.00 0.00 0.00 50 1017.6
20260905042404 52 225 0.0 0.0 0.00 0.00 0.00 51 1017.6
20260905041905 53 225 0.0 0.0 0.00 0.00 0.00 52 1017.5
20260905041404 53 225 0.0 0.0 0.00 0.00 0.00 52 1017.6
20260905040904 53 225 0.0 0.0 0.00 0.00 0.00 49 1017.6
20260905040404 54 225 0.0 0.0 0.00 0.00 0.00 48 1017.6
20260905035904 54 225 0.0 0.0 0.00 0.00 0.00 49 1017.5
20260905035404 54 225 0.0 0.0 0.00 0.00 0.00 49 1017.6
20260905034904 55 225 0.0 0.0 0.00 0.00 0.00 47 1017.5
20260905034404 55 225 0.0 0.0 0.00 0.00 0.00 46 1017.5
20260905033904 56 225 0.0 0.0 0.00 0.00 0.00 46 1017.6
20260905033404 56 225 0.0 0.0 0.00 0.00 0.00 45 1017.5
20260905032904 57 225 0.0 0.0 0.00 0.00 0.00 45 1017.4
20260905031904 58 225 0.0 0.0 0.00 0.00 0.00 42 1017.3
20260905030405 59 225 0.0 0.0 0.00 0.00 0.00 42 1017.2
20260905025905 59 225 0.0 0.0 0.00 0.00 0.00 42 1017.1
20260905025404 60 225 0.0 0.0 0.00 0.00 0.00 41 1017.1
20260905023904 62 225 0.0 0.0 0.00 0.00 0.00 39 1016.9
20260905023404 63 225 0.0 0.0 0.00 0.00 0.00 39 1016.8
20260905022905 64 225 0.0 0.0 0.00 0.00 0.00 29 1016.7
20260905022404 64 225 0.0 0.0 0.00 0.00 0.00 29 1016.6
20260905021904 65 225 0.0 0.0 0.00 0.00 0.00 28 1016.5
20260905021404 66 225 0.0 0.0 0.00 0.00 0.00 28 1016.5
20260905020904 67 225 0.0 0.0 0.00 0.00 0.00 29 1016.4
20260905020404 68 225 0.0 0.0 0.00 0.00 0.00 28 1016.3
20260905015904 68 225 0.0 0.0 0.00 0.00 0.00 27 1016.2
20260905015404 69 225 0.0 0.0 0.00 0.00 0.00 27 1016.2
20260905014904 70 225 0.0 0.0 0.00 0.00 0.00 24 1016.2
20260905013905 72 225 0.0 0.0 0.00 0.00 0.00 22 1016.0
20260905013404 73 225 0.0 0.0 0.00 0.00 0.00 21 1016.0
20260905012904 74 225 0.0 0.0 0.00 0.00 0.00 20 1015.8
20260905012404 74 225 0.0 0.0 0.00 0.00 0.00 20 1015.8
20260905011904 75 225 0.0 0.0 0.00 0.00 0.00 18 1015.7
20260905011404 76 225 0.0 0.0 0.00 0.00 0.00 13 1015.6
20260905010904 76 225 0.0 0.0 0.00 0.00 0.00 11 1015.7
20260905005904 77 225 0.0 2.6 0.00 0.00 0.00 9 1015.6
20260905005404 78 221 0.9 2.6 0.00 0.00 0.00 9 1015.6
20260905004903 78 181 0.0 2.6 0.00 0.00 0.00 8 1015.6
20260905004404 78 136 0.9 2.6 0.00 0.00 0.00 7 1015.5
20260905003904 78 204 0.0 5.2 0.00 0.00 0.00 7 1015.6
20260905003404 79 209 0.9 6.1 0.00 0.00 0.00 7 1015.5
20260905002904 79 223 2.6 15.6 0.00 0.00 0.00 7 1015.5
20260905002404 79 226 4.3 10.4 0.00 0.00 0.00 6 1015.4
20260905001904 79 230 1.7 14.8 0.00 0.00 0.00 6 1015.3
20260905001404 80 239 2.6 13.9 0.00 0.00 0.00 6 1015.3